[TLELIST] Archives

 

[TLELIST] Current TLEs

April 17th 2025 PDT

HST 1 20580U 90037B 25106.65942011 .00010154 00000-0 39313-3 0 9999 2 20580 28.4667 101.7441 0002207 134.7568 225.3206 15.24471247723282 ISS (ZARYA) 1 25544U 98067A 25107.19488923 .00019745 00000-0 35760-3 0 9999 2 25544 51.6366 249.1302 0005231 48.5635 311.5802 15.49628767505704 CXO 1 25867U 99040B 25108.61304746 .00000973 00000-0 00000-0 0 9996 2 25867 48.1491 132.6945 8512217 308.4397 0.0724 0.37804094 15719 ...Continue Reading

[TLELIST] Current TLEs

April 17th 2025 PDT

HST 1 20580U 90037B 25106.65942011 .00010154 00000-0 39313-3 0 9999 2 20580 28.4667 101.7441 0002207 134.7568 225.3206 15.24471247723282 ISS (ZARYA) 1 25544U 98067A 25107.19488923 .00019745 00000-0 35760-3 0 9999 2 25544 51.6366 249.1302 0005231 48.5635 311.5802 15.49628767505704 CXO 1 25867U 99040B 25108.61304746 .00000973 00000-0 00000-0 0 9996 2 25867 48.1491 132.6945 8512217 308.4397 0.0724 0.37804094 15719 ...Continue Reading

[TLELIST] Current TLEs

April 17th 2025 PDT

HST 1 20580U 90037B 25106.65942011 .00010154 00000-0 39313-3 0 9999 2 20580 28.4667 101.7441 0002207 134.7568 225.3206 15.24471247723282 ISS (ZARYA) 1 25544U 98067A 25107.19488923 .00019745 00000-0 35760-3 0 9999 2 25544 51.6366 249.1302 0005231 48.5635 311.5802 15.49628767505704 CXO 1 25867U 99040B 25108.61304746 .00000973 00000-0 00000-0 0 9996 2 25867 48.1491 132.6945 8512217 308.4397 0.0724 0.37804094 15719 ...Continue Reading

[TLELIST] Current TLEs

April 17th 2025 PDT

HST 1 20580U 90037B 25106.65942011 .00010154 00000-0 39313-3 0 9999 2 20580 28.4667 101.7441 0002207 134.7568 225.3206 15.24471247723282 ISS (ZARYA) 1 25544U 98067A 25107.19488923 .00019745 00000-0 35760-3 0 9999 2 25544 51.6366 249.1302 0005231 48.5635 311.5802 15.49628767505704 CXO 1 25867U 99040B 25108.61304746 .00000973 00000-0 00000-0 0 9996 2 25867 48.1491 132.6945 8512217 308.4397 0.0724 0.37804094 15719 ...Continue Reading

[TLELIST] Current TLEs

April 16th 2025 PDT

HST 1 20580U 90037B 25105.28464328 .00009419 00000-0 36439-3 0 9995 2 20580 28.4666 111.0506 0002268 121.3580 238.7237 15.24445431723075 ISS (ZARYA) 1 25544U 98067A 25105.90508772 .00016104 00000-0 29378-3 0 9995 2 25544 51.6364 255.5165 0005235 44.4016 315.7392 15.49579705505507 CXO 1 25867U 99040B 25108.61304746 .00000973 00000-0 00000-0 0 9996 2 25867 48.1491 132.6945 8512217 308.4397 0.0724 0.37804094 15719 ...Continue Reading

[TLELIST] Current TLEs

April 16th 2025 PDT

HST 1 20580U 90037B 25105.28464328 .00009419 00000-0 36439-3 0 9995 2 20580 28.4666 111.0506 0002268 121.3580 238.7237 15.24445431723075 ISS (ZARYA) 1 25544U 98067A 25105.90508772 .00016104 00000-0 29378-3 0 9995 2 25544 51.6364 255.5165 0005235 44.4016 315.7392 15.49579705505507 CXO 1 25867U 99040B 25108.61304746 .00000973 00000-0 00000-0 0 9996 2 25867 48.1491 132.6945 8512217 308.4397 0.0724 0.37804094 15719 ...Continue Reading

[TLELIST] Current TLEs

April 15th 2025 PDT

HST 1 20580U 90037B 25104.69544608 .00009467 00000-0 36641-3 0 9997 2 20580 28.4667 115.0392 0002273 115.3361 244.7469 15.24435175722986 ISS (ZARYA) 1 25544U 98067A 25104.93771177 .00013802 00000-0 25327-3 0 9990 2 25544 51.6362 260.3059 0005231 40.9775 319.1606 15.49550269505353 CXO 1 25867U 99040B 25105.96914894 .00000895 00000-0 00000+0 0 9994 2 25867 48.1030 132.8028 8515445 308.4124 0.0837 0.37808205 26867 ...Continue Reading

[TLELIST] Current TLEs

April 14th 2025 PDT

HST 1 20580U 90037B 25104.17171204 .00009507 00000-0 36811-3 0 9992 2 20580 28.4666 118.5846 0002299 110.7701 249.3139 15.24425514723164 ISS (ZARYA) 1 25544U 98067A 25103.90582541 .00013909 00000-0 25545-3 0 9991 2 25544 51.6361 265.4147 0005122 37.8814 322.2534 15.49519521505197 CXO 1 25867U 99040B 25105.96914894 .00000895 00000-0 00000+0 0 9994 2 25867 48.1030 132.8028 8515445 308.4124 0.0837 0.37808205 26867 ...Continue Reading

[TLELIST] Current TLEs

April 14th 2025 PDT

HST 1 20580U 90037B 25104.17171204 .00009507 00000-0 36811-3 0 9992 2 20580 28.4666 118.5846 0002299 110.7701 249.3139 15.24425514723164 ISS (ZARYA) 1 25544U 98067A 25103.90582541 .00013909 00000-0 25545-3 0 9991 2 25544 51.6361 265.4147 0005122 37.8814 322.2534 15.49519521505197 CXO 1 25867U 99040B 25105.96914894 .00000895 00000-0 00000+0 0 9994 2 25867 48.1030 132.8028 8515445 308.4124 0.0837 0.37808205 26867 ...Continue Reading

[TLELIST] Current TLEs

April 13th 2025 PDT

HST 1 20580U 90037B 25102.73142639 .00010590 00000-0 41129-3 0 9994 2 20580 28.4669 128.3345 0002315 96.8250 263.2608 15.24397518722686 ISS (ZARYA) 1 25544U 98067A 25103.13189730 .00016876 00000-0 30834-3 0 9992 2 25544 51.6361 269.2466 0005074 35.3494 324.7831 15.49497756505075 CXO 1 25867U 99040B 25105.96914894 .00000895 00000-0 00000+0 0 9994 2 25867 48.1030 132.8028 8515445 308.4124 0.0837 0.37808205 26867 ...Continue Reading
  • This mailing list is a public mailing list - anyone may join or leave, at any time.
  • This mailing list is announce-only.

International Space Station (ISS) / Hubble Space Telescope (HST) / Chandra X-Ray Observatory Orbital Data via EMAIL

Privacy Policy:

Private list